星链-36101(STARLINK-36101)

导读

STARLINK-36101是美国太空探索技术公司SpaceX于2025年12月2日发射的星链(Starlink)系列卫星,属于星链低轨卫星互联网星座的组网卫星,运行在近地轨道(LEO),主要为全球偏远、基础设施匮乏地区提供高速低延迟宽带互联网接入服务,助力全球网络覆盖,是星链星座持续扩容过程中的一颗组网卫星。

Basic Information
目录编号:
66867
目录名称:
STARLINK-36101
国际标识:
2025-281V
轨道中心:
EARTH
卫星名称:
星链-36101
卫星全名:
星链-36101(STARLINK-36101)
卫星状态:
在轨 (已飞行283 天)
发射日期:
2025-12-02 UTC
国别 :
美国 (US)
星等 :
--
This satellite is enrolled in the Space Conjunction Data Service (SCDS) and the current flight risk assessment level is: High Risk
Orbit Information
数据来源 国际轨道数据
星历时间: 2026-09-09T23:15:58+0800
2天前
查看轨道信息
半长轴: 6861.188km
偏心率: 0.0001481
轨道倾角: 43.004°
近地点辐角 255.620°
升交点赤经 24.992°
平近点角 104.449°
近地点: 482.034km
远地点: 484.068km
周期: 94.267分钟
每日圈数: 15.275796
Detailed Information
固有亮度:
5
最大亮度:
2.5
卫星平台:
Starlink V1.0
覆盖范围:
全球
运营商:
太空探索技术公司
运营商所在国:
美国
制造商(研发单位):
太空探索技术公司
制造商所在国:
美国
使用方式:
暂无
Satellite Introduction
Starlink 计划是 SpaceX 推出的全球卫星互联网项目,通过发射低轨道卫星,为全球尤其是偏远地区提供高速、低延迟的互联网服务。自 2019 年起,Starlink 已部署数千颗卫星,旨在缩小全球数字鸿沟,推动互联网普及。该项目还为军事、航空等行业提供通信支持,带来广泛经济效益。
2D Orbit Map
3D Orbit Map
Orbit Altitude Analysis Chart
Orbit Inclination Analysis Chart
Orbit Comprehensive Analysis Chart
View Comprehensive Chart
Conjunction Data List
Event ID Objects TCA Miss Dist (km) Collision Risk Probability Collision Risk Index (CRI) Action
CDM_260914-004205-788206-686721
2026-09-14T
00:42:01+0000
0.047 km
近距离
1.360234E-3 极高风险 0.98
CDM_260912-235105-808806-686724
2026-09-12T
23:51:18+0000
0.228 km
中距离
5.54203E-4 高风险 0.9
CDM_260913-125505-788206-686721
2026-09-13T
12:55:52+0000
0.455 km
远距离
1.365331E-4 高风险 0.78
CDM_260913-223605-808806-686722
2026-09-13T
22:36:32+0000
0.763 km
远距离
4.179607E-5 中风险 0.67
CDM_260913-012505-808806-686723
2026-09-13T
01:25:27+0000
1.006 km
极远距离
1.65914E-5 中风险 0.59
CDM_260914-001005-808806-686722
2026-09-14T
00:10:41+0000
1.080 km
极远距离
1.298078E-5 中风险 0.57
CDM_260906-174505-316406-686721
2026-09-06T
17:45:29+0000
0.959 km
远距离
1.058204E-5 中风险 0.55
CDM_260912-221705-808806-686723
2026-09-12T
22:17:08+0000
1.206 km
极远距离
8.862685E-6 低风险 0.54
CDM_260913-112105-788206-686721
2026-09-13T
11:21:43+0000
1.250 km
极远距离
5.929841E-6 低风险 0.5
CDM_260914-021605-788206-686721
2026-09-14T
02:16:11+0000
1.534 km
极远距离
3.059509E-6 低风险 0.45
Miss Distance Evolution Trend with All Objects
Collision Probability Evolution Trend with All Objects